Date String (YYYY-MM-DD hh:mm:ss) UTC,Instrument flags,Ambient pressure (hPa),Sample flow (lpm),Bypass flow (lpm),Sample temperature (°C),Ambient temperature (°C),ASC tube jacket temperature (°C),LED temperature (°C),Box temperature (°C),Sample RH (%),Span deviation,Mass concentration (μg/m³),Mass concentration (μg/m³),Mass concentration (μg/m³)
DateTimeUTC,F1_M11,P_M11,Q1_M11,Q2_M11,T1_M11,T2_M11,T3_M11,T4_M11,T5_M11,U1_M11,ZSPAN_M11,X0_M11,X2_M11,X1_M11
2022-11-19 19:00:00,,0832.0,5.00,0.00,24.4,23.2,00.0,33.3,26.3,08.1,0000.0,0006.90,0003.91,0003.54
2022-11-19 19:01:00,,0831.9,5.01,0.00,24.4,23.2,00.0,33.3,26.3,08.4,0000.0,0007.28,0004.05,0003.65
2022-11-19 19:02:00,,0831.9,5.00,0.00,24.4,23.1,00.0,33.3,26.3,08.6,0000.0,0007.49,0004.17,0003.75
2022-11-19 19:03:00,,0831.9,5.00,0.00,24.4,23.1,00.0,33.3,26.3,08.8,0000.0,0007.79,0004.29,0003.85
2022-11-19 19:04:00,,0831.8,4.99,0.00,24.4,23.1,00.0,33.2,26.3,08.9,0000.0,0008.50,0004.44,0003.97
2022-11-19 19:05:00,,0831.7,4.99,0.00,24.4,23.1,00.0,33.2,26.3,08.9,0000.0,0008.74,0004.58,0004.08
2022-11-19 19:06:00,,0831.7,5.01,0.00,24.3,23.0,00.0,33.2,26.3,09.0,0000.0,0009.04,0004.70,0004.19
2022-11-19 19:07:00,,0831.7,5.00,0.00,24.3,23.0,00.0,33.2,26.2,09.1,0000.0,0009.46,0004.80,0004.26
2022-11-19 19:08:00,,0831.7,4.99,0.00,24.3,23.0,00.0,33.2,26.3,09.5,0000.0,0010.72,0004.89,0004.35
2022-11-19 19:09:00,,0831.7,5.00,0.00,24.3,23.1,00.0,33.2,26.3,09.5,0000.0,0011.65,0004.95,0004.40
2022-11-19 19:10:00,,0831.7,5.00,0.00,24.3,23.1,00.0,33.2,26.2,09.3,0000.0,0011.74,0004.99,0004.44
2022-11-19 19:11:00,,0831.7,5.01,0.00,24.3,23.1,00.0,33.2,26.2,09.1,0000.0,0011.83,0005.02,0004.48
2022-11-19 19:12:00,,0831.7,5.00,0.00,24.3,23.1,00.0,33.2,26.2,09.4,0000.0,0012.38,0005.04,0004.50
2022-11-19 19:13:00,,0831.7,4.99,0.00,24.4,23.2,00.0,33.2,26.2,09.7,0000.0,0012.64,0005.11,0004.54
2022-11-19 19:14:00,,0831.8,4.99,0.00,24.4,23.2,00.0,33.2,26.2,09.2,0000.0,0012.55,0005.12,0004.56
2022-11-19 19:15:00,,0831.7,4.99,0.00,24.4,23.3,00.0,33.2,26.3,09.2,0000.0,0011.71,0005.10,0004.56
2022-11-19 19:16:00,,0831.7,5.00,0.00,24.4,23.3,00.0,33.2,26.3,09.2,0000.0,0011.65,0005.10,0004.56
2022-11-19 19:17:00,,0831.7,5.01,0.00,24.4,23.3,00.0,33.2,26.3,09.0,0000.0,0011.60,0005.11,0004.56
2022-11-19 19:18:00,,0831.7,5.00,0.00,24.4,23.3,00.0,33.3,26.3,09.0,0000.0,0012.04,0005.14,0004.56
2022-11-19 19:19:00,,0831.7,4.99,0.00,24.5,23.4,00.0,33.3,26.3,08.9,0000.0,0011.56,0005.15,0004.55
2022-11-19 19:20:00,,0831.7,5.00,0.00,24.5,23.4,00.0,33.3,26.3,09.1,0000.0,0010.78,0005.18,0004.54
2022-11-19 19:21:00,,0831.7,5.01,0.00,24.5,23.4,00.0,33.3,26.4,09.3,0000.0,0010.67,0005.17,0004.53
2022-11-19 19:22:00,,0831.6,5.00,0.00,24.5,23.5,00.0,33.3,26.4,09.2,0000.0,0011.77,0005.17,0004.53
2022-11-19 19:23:00,,0831.6,5.01,0.00,24.5,23.5,00.0,33.3,26.4,09.1,0000.0,0012.41,0005.15,0004.52
2022-11-19 19:24:00,,0831.6,5.00,0.00,24.6,23.5,00.0,33.3,26.4,08.9,0000.0,0012.00,0005.11,0004.50
2022-11-19 19:25:00,,0831.5,4.99,0.00,24.6,23.5,00.0,33.3,26.5,09.0,0000.0,0011.96,0005.06,0004.49
2022-11-19 19:26:00,,0831.5,5.00,0.00,24.6,23.5,00.0,33.4,26.5,08.5,0000.0,0012.10,0005.04,0004.47
2022-11-19 19:27:00,,0831.5,4.99,0.00,24.6,23.5,00.0,33.4,26.5,08.5,0000.0,0011.98,0004.98,0004.43
2022-11-19 19:28:00,,0831.5,4.99,0.00,24.6,23.5,00.0,33.4,26.5,08.6,0000.0,0012.01,0004.96,0004.40
2022-11-19 19:29:00,,0831.4,5.00,0.00,24.6,23.6,00.0,33.4,26.5,08.5,0000.0,0011.56,0004.85,0004.35
2022-11-19 19:30:00,,0831.4,5.01,0.00,24.7,23.6,00.0,33.4,26.6,08.1,0000.0,0010.86,0004.74,0004.28
2022-11-19 19:31:00,,0831.5,5.01,0.00,24.7,23.6,00.0,33.4,26.6,07.7,0000.0,0010.07,0004.58,0004.17
2022-11-19 19:32:00,,0831.4,4.99,0.00,24.7,23.6,00.0,33.4,26.6,07.7,0000.0,0010.22,0004.47,0004.09
2022-11-19 19:33:00,,0831.4,4.99,0.00,24.7,23.7,00.0,33.5,26.7,07.5,0000.0,0010.62,0004.36,0003.99
2022-11-19 19:34:00,,0831.5,5.01,0.00,24.7,23.7,00.0,33.5,26.6,07.9,0000.0,0009.05,0004.24,0003.90
2022-11-19 19:35:00,,0831.4,5.00,0.00,24.7,23.7,00.0,33.5,26.6,08.1,0000.0,0008.79,0004.17,0003.84
2022-11-19 19:36:00,,0831.4,4.99,0.00,24.8,23.7,00.0,33.5,26.6,08.4,0000.0,0008.58,0004.09,0003.78
2022-11-19 19:37:00,,0831.4,4.99,0.00,24.8,23.7,00.0,33.5,26.6,08.0,0000.0,0008.32,0004.01,0003.73
2022-11-19 19:38:00,,0831.4,5.00,0.00,24.8,23.7,00.0,33.5,26.7,08.0,0000.0,0008.25,0003.99,0003.70
2022-11-19 19:39:00,,0831.3,4.99,0.00,24.8,23.7,00.0,33.6,26.7,08.1,0000.0,0008.36,0003.95,0003.67
2022-11-19 19:40:00,,0831.3,5.01,0.00,24.8,23.7,00.0,33.6,26.7,08.1,0000.0,0008.57,0003.94,0003.66
2022-11-19 19:41:00,,0831.3,5.01,0.00,24.8,23.7,00.0,33.6,26.7,08.1,0000.0,0008.65,0003.97,0003.68
2022-11-19 19:42:00,,0831.2,4.98,0.00,24.8,23.7,00.0,33.6,26.7,08.4,0000.0,0008.79,0004.05,0003.75
2022-11-19 19:43:00,,0831.2,5.00,0.00,24.8,23.7,00.0,33.6,26.7,08.6,0000.0,0008.61,0004.18,0003.82
2022-11-19 19:44:00,,0831.2,5.01,0.00,24.9,23.8,00.0,33.6,26.7,08.6,0000.0,0007.75,0004.26,0003.91
2022-11-19 19:45:00,,0831.3,4.99,0.00,24.9,23.8,00.0,33.6,26.7,08.2,0000.0,0007.83,0004.33,0003.98
2022-11-19 19:46:00,,0831.2,4.99,0.00,24.9,23.8,00.0,33.6,26.7,08.1,0000.0,0007.86,0004.37,0004.02
2022-11-19 19:47:00,,0831.2,5.02,0.00,24.9,23.8,00.0,33.7,26.8,08.1,0000.0,0008.19,0004.39,0004.05
2022-11-19 19:48:00,,0831.2,4.99,0.00,24.9,23.8,00.0,33.7,26.8,08.2,0000.0,0008.48,0004.47,0004.09
2022-11-19 19:49:00,,0831.2,4.99,0.00,24.9,23.8,00.0,33.7,26.8,08.3,0000.0,0008.55,0004.52,0004.13
2022-11-19 19:50:00,,0831.2,5.01,0.00,24.9,23.9,00.0,33.7,26.8,08.1,0000.0,0008.45,0004.56,0004.17
2022-11-19 19:51:00,,0831.2,5.01,0.00,25.0,23.9,00.0,33.7,26.8,08.2,0000.0,0008.83,0004.58,0004.20
2022-11-19 19:52:00,,0831.2,4.98,0.00,25.0,23.9,00.0,33.7,26.9,08.2,0000.0,0008.83,0004.59,0004.22
2022-11-19 19:53:00,,0831.2,5.01,0.00,25.0,23.9,00.0,33.8,26.9,08.1,0000.0,0008.95,0004.60,0004.23
2022-11-19 19:54:00,,0831.2,5.01,0.00,25.0,23.9,00.0,33.8,26.9,08.1,0000.0,0008.95,0004.55,0004.22
2022-11-19 19:55:00,,0831.2,4.99,0.00,25.0,23.9,00.0,33.8,26.9,07.9,0000.0,0009.72,0004.50,0004.16
2022-11-19 19:56:00,,0831.2,4.99,0.00,25.0,24.0,00.0,33.8,26.9,07.4,0000.0,0009.88,0004.45,0004.08
2022-11-19 19:57:00,,0831.2,5.01,0.00,25.1,24.0,00.0,33.8,26.9,07.4,0000.0,0009.79,0004.36,0004.00
2022-11-19 19:58:00,,0831.2,5.00,0.00,25.1,24.0,00.0,33.8,26.9,07.2,0000.0,0009.35,0004.27,0003.92
2022-11-19 19:59:00,,0831.2,4.99,0.00,25.1,24.0,00.0,33.8,26.9,07.0,0000.0,0009.13,0004.13,0003.82
